When you browse on this site, cookies collect data to enhance your experience and personalize the content and advertising you see.
Visit our Privacy Policy to learn more. By continuing to use the site, you agree to this use of cookies and data.

Hourly Weather Repno-Nikolskoe

Today, 9 July, Thursday

Time Temperature Precipitation Wind Pressure Humidity
00:00 +14°C° 0.4 mm 6 mps 739 mmHg 94%
01:00 +13°C° 0.4 mm 5 mps 739 mmHg 95%
02:00 +13°C° 0.4 mm 5 mps 739 mmHg 95%
03:00 +13°C° 0.1 mm 5 mps 740 mmHg 95%
04:00 +13°C° 0.1 mm 5 mps 740 mmHg 94%
05:00 +12°C° 0.1 mm 5 mps 741 mmHg 93%
06:00 +13°C° 0 mm 5 mps 741 mmHg 89%
07:00 +15°C° 0 mm 5 mps 741 mmHg 86%
08:00 +16°C° 0 mm 5 mps 742 mmHg 82%
09:00 +17°C° 0 mm 5 mps 742 mmHg 78%
10:00 +19°C° 0 mm 5 mps 742 mmHg 74%
11:00 +20°C° 0 mm 4 mps 743 mmHg 70%
12:00 +20°C° 0.1 mm 4 mps 743 mmHg 68%
13:00 +21°C° 0.1 mm 3 mps 743 mmHg 66%
14:00 +21°C° 0.1 mm 3 mps 743 mmHg 64%
15:00 +21°C° 0.2 mm 3 mps 743 mmHg 68%
16:00 +20°C° 0.2 mm 4 mps 743 mmHg 73%
17:00 +19°C° 0.2 mm 4 mps 743 mmHg 78%
18:00 +18°C° 0 mm 3 mps 743 mmHg 81%
19:00 +16°C° 0 mm 3 mps 744 mmHg 84%
20:00 +15°C° 0 mm 2 mps 744 mmHg 88%
21:00 +14°C° 0 mm 2 mps 745 mmHg 90%
22:00 +14°C° 0 mm 2 mps 745 mmHg 91%
23:00 +12°C° 0 mm 3 mps 745 mmHg 93%

Tomorrow, 10 July, Friday

Time Temperature Precipitation Wind Pressure Humidity
00:00 +12°C° 0 mm 3 mps 746 mmHg 94%
01:00 +11°C° 0 mm 3 mps 746 mmHg 94%
02:00 +11°C° 0 mm 3 mps 746 mmHg 94%
03:00 +12°C° 0 mm 2 mps 746 mmHg 93%
04:00 +12°C° 0 mm 2 mps 747 mmHg 91%
05:00 +12°C° 0 mm 2 mps 747 mmHg 89%
06:00 +14°C° 0 mm 2 mps 747 mmHg 84%
07:00 +15°C° 0 mm 2 mps 748 mmHg 78%
08:00 +17°C° 0 mm 2 mps 748 mmHg 72%
09:00 +18°C° 0 mm 2 mps 748 mmHg 69%
10:00 +19°C° 0 mm 2 mps 748 mmHg 65%
11:00 +20°C° 0 mm 3 mps 748 mmHg 61%
12:00 +20°C° 0 mm 3 mps 748 mmHg 61%
13:00 +21°C° 0 mm 2 mps 748 mmHg 60%
14:00 +21°C° 0 mm 2 mps 748 mmHg 60%
15:00 +21°C° 0 mm 2 mps 748 mmHg 62%
16:00 +21°C° 0 mm 2 mps 748 mmHg 65%
17:00 +21°C° 0 mm 2 mps 748 mmHg 68%
18:00 +20°C° 0 mm 2 mps 748 mmHg 73%
19:00 +18°C° 0 mm 2 mps 748 mmHg 77%
20:00 +17°C° 0 mm 2 mps 748 mmHg 82%
21:00 +16°C° 0 mm 2 mps 748 mmHg 83%
22:00 +15°C° 0 mm 2 mps 749 mmHg 84%
23:00 +15°C° 0 mm 2 mps 749 mmHg 85%

Day after tomorrow, 11 July, Saturday

Time Temperature Precipitation Wind Pressure Humidity
00:00 +15°C° 0 mm 2 mps 749 mmHg 85%
01:00 +14°C° 0 mm 2 mps 749 mmHg 86%
02:00 +14°C° 0 mm 2 mps 749 mmHg 86%
03:00 +13°C° 0 mm 3 mps 749 mmHg 86%
04:00 +14°C° 0 mm 3 mps 749 mmHg 85%
05:00 +14°C° 0 mm 3 mps 749 mmHg 85%
06:00 +17°C° 0 mm 3 mps 749 mmHg 82%
07:00 +18°C° 0 mm 3 mps 749 mmHg 78%
08:00 +20°C° 0 mm 3 mps 749 mmHg 75%
09:00 +21°C° 0 mm 3 mps 749 mmHg 72%
10:00 +22°C° 0 mm 4 mps 749 mmHg 70%
11:00 +23°C° 0 mm 4 mps 749 mmHg 67%
12:00 +25°C° 0 mm 4 mps 749 mmHg 66%
13:00 +25°C° 0 mm 3 mps 749 mmHg 65%
14:00 +26°C° 0 mm 3 mps 749 mmHg 65%
15:00 +25°C° 0 mm 3 mps 748 mmHg 67%
16:00 +25°C° 0 mm 3 mps 748 mmHg 69%
17:00 +25°C° 0 mm 2 mps 748 mmHg 72%
18:00 +23°C° 0 mm 2 mps 748 mmHg 75%
19:00 +21°C° 0 mm 2 mps 748 mmHg 77%
20:00 +19°C° 0 mm 2 mps 748 mmHg 80%
21:00 +19°C° 0 mm 2 mps 748 mmHg 81%
22:00 +18°C° 0 mm 2 mps 748 mmHg 82%
23:00 +17°C° 0 mm 2 mps 748 mmHg 83%

12 July, Sunday

Time Temperature Precipitation Wind Pressure Humidity
00:00 +17°C° 0 mm 2 mps 748 mmHg 83%
01:00 +16°C° 0 mm 2 mps 747 mmHg 84%
02:00 +16°C° 0 mm 2 mps 747 mmHg 85%
03:00 +16°C° 0 mm 2 mps 747 mmHg 85%
04:00 +18°C° 0 mm 1 mps 747 mmHg 85%
05:00 +18°C° 0 mm 1 mps 746 mmHg 85%
06:00 +20°C° 0 mm 1 mps 746 mmHg 81%
07:00 +21°C° 0 mm 1 mps 747 mmHg 76%
08:00 +23°C° 0 mm 1 mps 747 mmHg 71%
09:00 +24°C° 0 mm 1 mps 746 mmHg 67%
10:00 +25°C° 0 mm 2 mps 746 mmHg 63%
11:00 +26°C° 0 mm 2 mps 746 mmHg 59%
12:00 +26°C° 0 mm 2 mps 745 mmHg 58%
13:00 +27°C° 0 mm 2 mps 745 mmHg 57%
14:00 +27°C° 0 mm 2 mps 745 mmHg 56%
15:00 +27°C° 0 mm 2 mps 744 mmHg 60%
16:00 +27°C° 0 mm 2 mps 744 mmHg 65%
17:00 +26°C° 0 mm 2 mps 743 mmHg 69%
18:00 +25°C° 0.1 mm 2 mps 743 mmHg 74%
19:00 +23°C° 0.1 mm 2 mps 742 mmHg 78%
20:00 +21°C° 0.1 mm 2 mps 742 mmHg 82%
21:00 +20°C° 0.6 mm 2 mps 742 mmHg 86%
22:00 +20°C° 0.6 mm 2 mps 741 mmHg 89%
23:00 +19°C° 0.6 mm 3 mps 741 mmHg 93%

13 July, Monday

Time Temperature Precipitation Wind Pressure Humidity
00:00 +19°C° 0.4 mm 3 mps 741 mmHg 94%
01:00 +19°C° 0.4 mm 3 mps 740 mmHg 95%
02:00 +19°C° 0.4 mm 2 mps 740 mmHg 96%
03:00 +19°C° 1 mm 2 mps 739 mmHg 96%
04:00 +19°C° 1 mm 2 mps 739 mmHg 96%
05:00 +21°C° 1 mm 1 mps 738 mmHg 96%
06:00 +21°C° 0.5 mm 2 mps 738 mmHg 94%
07:00 +22°C° 0.5 mm 3 mps 738 mmHg 93%
08:00 +23°C° 0.5 mm 4 mps 738 mmHg 91%
09:00 +23°C° 1.3 mm 4 mps 738 mmHg 88%
10:00 +25°C° 1.3 mm 4 mps 737 mmHg 85%
11:00 +26°C° 1.3 mm 4 mps 737 mmHg 82%
12:00 +26°C° 1.8 mm 3 mps 736 mmHg 81%
13:00 +26°C° 1.8 mm 3 mps 736 mmHg 80%
14:00 +27°C° 1.8 mm 2 mps 736 mmHg 79%
15:00 +26°C° 0.5 mm 3 mps 735 mmHg 81%
16:00 +25°C° 0.5 mm 3 mps 735 mmHg 84%
17:00 +24°C° 0.5 mm 3 mps 735 mmHg 86%
18:00 +22°C° 0.5 mm 3 mps 735 mmHg 89%
19:00 +22°C° 0.5 mm 3 mps 735 mmHg 91%
20:00 +21°C° 0.5 mm 3 mps 735 mmHg 94%
21:00 +20°C° 0.1 mm 4 mps 735 mmHg 95%
22:00 +19°C° 0.1 mm 4 mps 734 mmHg 96%
23:00 +19°C° 0.1 mm 4 mps 734 mmHg 97%

14 July, Tuesday

Time Temperature Precipitation Wind Pressure Humidity
00:00 +17°C° 0 mm 5 mps 734 mmHg 97%
01:00 +17°C° 0 mm 5 mps 735 mmHg 96%
02:00 +17°C° 0 mm 5 mps 735 mmHg 95%
03:00 +16°C° 0 mm 5 mps 735 mmHg 95%
04:00 +16°C° 0 mm 5 mps 735 mmHg 95%
05:00 +15°C° 0 mm 5 mps 735 mmHg 95%
06:00 +15°C° 0 mm 5 mps 735 mmHg 94%
07:00 +15°C° 0 mm 5 mps 736 mmHg 93%
08:00 +15°C° 0 mm 6 mps 736 mmHg 92%
09:00 +15°C° 0 mm 6 mps 736 mmHg 89%
10:00 +15°C° 0 mm 6 mps 736 mmHg 87%
11:00 +15°C° 0 mm 6 mps 737 mmHg 85%
12:00 +16°C° 0.1 mm 6 mps 737 mmHg 83%
13:00 +16°C° 0.1 mm 7 mps 737 mmHg 81%
14:00 +17°C° 0.1 mm 7 mps 737 mmHg 79%
15:00 +16°C° 0.1 mm 7 mps 737 mmHg 80%
16:00 +16°C° 0.1 mm 7 mps 738 mmHg 81%
17:00 +15°C° 0.1 mm 7 mps 738 mmHg 82%
18:00 +15°C° 0 mm 7 mps 738 mmHg 83%
19:00 +14°C° 0 mm 6 mps 738 mmHg 83%
20:00 +14°C° 0 mm 6 mps 738 mmHg 84%
21:00 +14°C° 0 mm 6 mps 738 mmHg 84%
22:00 +14°C° 0 mm 6 mps 738 mmHg 84%
23:00 +13°C° 0 mm 6 mps 738 mmHg 84%
Show more